CAPE
0 0 0 0 0 0 0 0 0 0 0 0 0 1 6 0 547 599 223 1101 1372 1320 1198 1003 810 872 1084 1022 697 240 156 70 2 7 105 135 238 361 532 360 220 255 272 136 32 0 0 0 0
0 0 0 0 0 0 0 0 0 2 0 0 0 10 448 0 3 1023 320 1336 1257 1577 1131 971 738 787 941 999 728 292 246 155 37 70 117 194 227 333 563 627 472 201 22 0 0 0 0 0 0
0 0 0 0 0 0 0 0 0 34 0 0 0 186 995 9 42 716 258 1301 1194 1337 1310 1091 721 893 1127 1126 690 354 417 255 51 83 123 162 176 204 380 519 361 57 0 0 6 19 18 23 20
0 0 0 0 0 0 0 0 15 0 2 0 0 449 140 560 1250 534 649 1191 1104 914 1434 917 586 828 1009 1076 785 604 589 277 49 94 75 114 113 118 168 249 102 0 0 0 4 35 24 45 120
0 0 0 0 0 0 0 0 0 3 1 0 0 670 633 985 913 575 886 768 743 892 1484 820 647 670 897 1033 916 737 589 255 97 82 81 90 81 59 87 45 0 0 0 0 15 48 36 51 60
0 0 0 0 0 0 0 0 20 30 0 0 0 913 1349 982 597 525 699 636 629 1432 952 609 561 541 732 988 987 770 641 364 153 175 152 104 43 10 2 0 0 0 0 0 18 46 39 35 31
0 0 0 0 0 0 0 2 1 19 0 0 0 518 1372 937 656 426 462 712 1209 1422 681 512 508 566 609 818 872 769 681 584 411 437 269 112 0 0 0 0 0 0 0 0 16 36 43 33 18
0 0 0 0 0 0 0 64 30 3 0 0 0 191 905 131 811 487 447 702 1328 1098 598 438 419 383 406 594 682 670 680 679 616 504 298 66 0 0 0 0 0 0 0 0 0 10 23 32 48
0 0 0 0 0 0 0 0 87 24 3 0 0 1413 1487 1013 870 654 581 778 958 873 572 249 143 175 29 108 312 364 471 525 472 328 105 5 0 0 5 0 5 0 0 0 0 0 0 6 4
0 0 0 0 0 0 0 0 0 1 0 0 0 1690 1692 964 178 856 743 829 740 902 475 314 118 69 8 0 93 2 10 17 10 2 21 1 0 0 0 0 0 21 0 0 0 0 0 0 0
0 0 0 0 0 0 0 0 0 0 0 0 0 49 1739 1160 997 942 692 656 543 779 447 316 264 216 142 95 46 0 0 0 0 0 109 0 0 57 0 288 64 9 0 0 0 0 0 0 0
0 0 0 0 0 0 0 0 0 0 0 0 0 0 79 1335 787 836 690 533 498 605 407 352 562 340 413 655 298 59 83 3 5 30 182 2 11 59 20 25 92 60 10 0 7 29 35 1 0
0 0 0 0 0 0 2 0 0 0 0 0 0 0 0 141 507 584 560 511 493 595 522 403 781 608 692 1160 924 247 413 215 206 111 284 255 24 322 72 193 8 179 116 78 158 70 182 229 128
0 0 0 23 0 0 0 1 0 0 0 0 0 0 0 4 0 39 901 678 557 631 671 802 1050 948 879 1206 1085 944 543 625 700 773 724 720 1029 996 1284 931 1072 940 988 604 505 596 745 833 1022
0 0 7 57 0 0 11 0 0 0 0 0 0 0 0 0 8 433 597 843 280 413 788 1340 1367 1583 1279 1225 1584 1002 1365 1105 924 1286 1464 1357 1372 1791 1807 1392 1208 1022 863 759 818 863 917 823 743
0 9 125 59 5 23 23 0 0 0 0 0 0 0 0 0 0 65 576 254 37 67 831 1624 1809 2192 2092 1571 1823 1701 1379 1266 1393 1120 1812 1793 1747 1297 1939 1366 1341 849 964 1163 1230 1399 1422 1319 1205
1 68 158 130 106 0 12 0 0 0 0 0 0 0 0 0 0 0 14 10 11 0 0 1999 1851 2586 2560 2773 2464 1829 1919 2048 1556 1831 1570 1792 2134 1977 1560 1936 1206 1544 1359 189 1255 1404 1417 1283 969
0 47 96 23 12 7 0 2 0 1 0 0 0 0 0 0 0 0 0 10 0 0 17 1946 1881 2163 2783 2791 2825 2810 2475 2277 2161 2169 1686 1789 1978 1716 1854 1633 1622 1496 1415 1181 1020 1143 954 1309 956
3 123 44 24 0 4 1 44 19 3 7 0 0 0 0 0 0 0 0 5 0 5 0 416 1423 1488 2815 3109 2827 2568 2698 2458 1937 2180 1947 1803 1944 1710 1870 1595 1582 1662 1595 1443 1443 1261 1379 1183 1329
4 74 65 92 84 7 76 55 2 3 10 0 0 0 0 0 0 1 0 0 0 14 0 1 274 1635 1827 2115 2367 2135 1579 1677 2066 1577 2311 1841 1810 1714 1751 1676 1759 1602 1386 1002 1073 1242 984 792 498
0 2 55 109 98 0 51 90 0 0 0 0 0 0 0 0 0 0 0 0 26 64 5 37 48 229 1917 1220 1578 1261 1349 905 1122 1051 1966 1984 1730 1237 1731 1581 1451 1545 1563 736 1136 661 391 511 363
0 0 10 1 0 1 45 0 0 0 0 0 0 0 0 0 0 0 0 0 0 4 2 8 66 443 992 944 1328 1161 844 1065 737 1433 2011 2237 2082 2058 1709 1404 2003 722 593 189 370 388 318 209 117
0 3 0 0 0 1 0 0 0 0 0 0 0 0 0 0 0 0 0 0 0 0 0 2 43 109 1193 1318 1603 1299 1596 1460 1137 879 1695 2278 2180 2070 1777 1529 657 357 199 152 85 110 118 104 96
0 0 1 25 3 1 0 0 0 0 0 0 0 0 0 0 1 15 13 0 3 0 1 13 83 721 769 2281 1291 1833 2346 1391 1542 1138 1930 1753 1804 1090 489 224 217 309 191 114 98 58 44 44 52
0 0 21 27 5 0 0 0 0 0 0 0 0 0 0 0 0 4 0 5 0 0 19 13 414 1034 1611 2048 2430 1902 2286 2297 1868 1575 1738 1151 456 306 188 236 246 243 231 146 37 36 34 112 43
0 0 0 0 0 0 0 0 0 0 0 0 0 0 4 0 0 0 18 59 29 48 78 65 211 639 1043 1427 1889 1708 1694 1831 1879 1449 723 448 357 175 171 141 285 269 271 84 70 35 47 14 0
0 0 0 12 0 0 0 0 0 0 0 0 3 11 0 2 0 26 37 193 275 342 285 331 446 709 866 1109 1162 1358 1514 1641 1209 782 537 333 214 154 314 194 205 304 162 242 215 77 36 23 5
1 0 0 0 0 3 1 9 4 0 0 3 0 0 0 0 0 0 71 115 208 205 196 349 303 202 201 208 216 288 302 221 162 217 179 191 164 187 366 437 317 278 326 302 184 139 125 71 47
21 0 0 0 1 0 0 0 21 5 0 0 0 0 0 0 0 0 0 0 57 1 0 0 7 0 0 0 0 0 4 0 0 17 25 54 42 90 198 267 241 242 393 425 376 302 190 118 139
11 3 0 0 0 0 10 0 2 0 0 5 0 0 0 0 0 11 20 12 0 0 0 0 0 0 0 0 0 0 0 0 0 0 0 0 3 46 90 131 171 180 192 199 323 269 294 277 263
CIN
0 0 0 0 0 0 0 0 0 0 0 0 0 -6 -72 0 -92 -13 -146 -181 -276 -357 -409 -389 -388 -349 -294 -274 -323 -421 -453 -526 -395 -630 -462 -414 -302 -210 -146 -176 -229 -181 -156 -218 -317 0 0 0 0
0 0 0 0 0 0 0 0 0 -16 0 0 0 -18 -135 0 -30 -65 -101 -206 -282 -365 -414 -410 -424 -375 -326 -287 -321 -415 -403 -437 -596 -521 -428 -332 -294 -213 -126 -97 -122 -208 -377 0 0 0 0 0 0
0 0 0 0 0 0 0 0 0 -15 0 0 0 -39 -197 -23 -270 -113 -167 -257 -318 -378 -371 -406 -449 -383 -316 -286 -328 -383 -336 -365 -558 -466 -392 -337 -309 -264 -156 -108 -148 -332 0 0 -125 -272 -269 -252 -268
0 0 0 0 0 0 0 0 -41 0 -11 0 0 -49 -337 -267 -80 -152 -210 -261 -317 -380 -357 -479 -481 -406 -347 -301 -314 -312 -282 -336 -489 -406 -407 -358 -339 -331 -265 -193 -276 0 0 0 -183 -355 -285 -278 -279
0 0 0 0 0 0 0 0 0 -33 -3 0 0 -37 -81 -69 -106 -192 -211 -265 -298 -342 -384 -498 -482 -430 -365 -308 -285 -284 -279 -332 -400 -401 -383 -364 -356 -375 -318 -341 0 0 0 0 -206 -278 -310 -317 -319
0 0 0 0 0 0 0 0 -15 -11 -7 0 0 -14 -35 -107 -121 -182 -192 -211 -249 -322 -469 -557 -508 -452 -391 -305 -276 -285 -262 -294 -351 -326 -325 -340 -369 -397 -193 0 0 0 0 0 -337 -312 -347 -359 -363
0 0 0 0 0 0 0 -15 -8 -10 0 0 0 -15 -61 -71 -116 -145 -189 -172 -232 -319 -443 -528 -510 -453 -401 -338 -293 -265 -253 -246 -277 -243 -281 -313 -47 0 0 0 0 -15 0 0 -382 -348 -348 -374 -402
0 0 0 0 0 0 0 -21 -13 -91 0 0 0 -4 -114 -152 -92 -124 -147 -167 -199 -305 -437 -502 -514 -482 -435 -369 -320 -285 -248 -217 -216 -236 -271 -328 0 0 0 0 0 0 0 0 0 -411 -402 -380 -374
0 0 0 0 0 0 0 -11 -20 -20 -6 0 0 -18 -20 -37 -20 -72 -119 -136 -174 -265 -392 -473 -517 -506 -515 -468 -421 -376 -304 -271 -257 -277 -334 -319 0 0 -108 0 -85 0 0 0 0 0 0 -481 -321
0 0 0 0 0 0 -20 0 0 -4 0 0 0 -12 -35 -98 -92 -14 -53 -112 -146 -215 -325 -388 -464 -489 -330 0 -474 -229 -208 -205 -196 -62 -406 -195 0 0 0 0 0 -273 0 0 0 0 0 0 0
0 0 0 0 0 0 0 0 0 0 0 0 0 -3 -6 -6 -3 -5 -34 -55 -103 -142 -246 -344 -376 -407 -372 -374 -288 0 0 0 0 0 -323 0 0 -206 0 -129 -207 -268 0 0 0 0 0 0 0
0 0 0 0 0 -7 0 0 0 0 0 0 0 0 -23 -6 -4 -2 -3 -15 -59 -112 -182 -269 -284 -327 -277 -230 -295 -361 -342 -91 -271 -351 -251 -33 -130 -160 -195 -35 -153 -196 -245 0 -155 -275 -262 -36 0
0 0 -1 0 0 0 -8 0 0 0 0 0 0 0 0 -72 -69 -4 -2 -8 -9 -67 -118 -216 -220 -239 -205 -114 -151 -261 -217 -250 -240 -262 -208 -188 -249 -99 -143 -89 -89 -110 -103 -142 -114 -139 -119 -111 -130
0 0 -3 -10 0 0 0 -1 0 0 0 0 0 0 0 -23 0 -167 -2 -5 -13 -36 -85 -125 -143 -169 -153 -101 -96 -118 -142 -137 -107 -109 -129 -99 -42 -23 -4 -8 -6 -8 -7 -22 -34 -23 -16 -17 -11
0 0 -6 -22 -1 0 -5 0 0 0 0 0 0 0 0 0 -41 -13 -99 -70 -290 -117 -52 -68 -102 -114 -125 -106 -74 -95 -53 -27 -43 -10 -23 -61 -19 -5 -4 -2 -5 -3 -9 -9 -10 -9 -15 -15 -16
-3 -11 -5 -38 -16 -2 -4 0 0 0 0 0 0 0 0 0 0 -66 -63 -175 -337 -293 -48 -22 -47 -100 -108 -115 -71 -60 -59 -48 -9 -19 -11 -28 -23 -16 -2 -4 -5 -6 -6 -9 -11 -6 -6 -8 -8
-8 0 -4 -6 -38 -26 -26 0 0 0 0 0 0 0 0 0 0 0 -111 -85 -73 -39 0 -12 -16 -53 -86 -45 -50 -60 -35 -7 -17 -12 -11 -12 -14 -9 -15 -3 -11 -6 -19 -123 -10 -3 -4 -7 -9
0 -4 -36 -23 -145 -6 0 -1 0 -69 0 0 0 0 0 0 0 0 0 -305 0 0 -108 -10 -15 -8 -50 -47 -20 -7 -7 -4 -5 -10 -14 -13 -10 -14 -22 -11 -5 -15 -16 -8 -5 -3 -7 -6 -16
-5 -8 -3 -43 0 -12 0 -7 -97 -37 -5 0 0 0 0 0 0 0 0 -182 0 -102 0 -34 -24 -28 -26 -20 -31 -12 -3 -2 -13 -6 -8 -20 -12 -13 -5 -17 -8 -3 -7 -3 -3 -6 -4 -16 -3
-19 -30 -11 -21 -60 -18 -1 -12 -41 -40 -41 0 0 0 0 0 0 -2 -1 0 0 -16 0 -69 -70 -28 -22 -23 -29 -27 -39 -3 -8 -14 -11 -23 -13 -8 -7 -13 -11 -20 -14 -13 -7 -20 -26 -44 -58
0 -1 -23 -4 -7 -2 -27 -9 0 0 0 0 0 0 0 0 0 0 0 0 -5 -25 -29 -123 -125 -92 -43 -37 -30 -24 -15 -28 -5 -8 -12 -23 -24 -33 -19 -27 -15 -3 -14 -25 -24 -47 -92 -85 -99
0 -2 -28 -16 0 -4 -5 0 0 0 0 0 0 0 0 0 0 0 0 0 0 -7 -24 -102 -115 -89 -83 -71 -40 -46 -52 -38 -36 -6 -26 -27 -23 -13 -17 -31 -8 -36 -78 -75 -32 -81 -111 -128 -146
0 -9 0 0 0 -16 0 0 0 0 0 0 0 0 0 0 0 0 0 0 0 0 0 -134 -125 -121 -66 -93 -42 -46 -42 -30 -17 -7 -9 -24 -30 -19 -15 -13 -76 -87 -112 -103 -130 -157 -139 -152 -151
0 0 -7 -16 -37 -8 -6 0 0 0 0 0 0 0 0 0 -2 -3 -13 0 -36 0 -32 -90 -73 -79 -89 -37 -77 -29 -8 -43 -10 -6 -15 -19 -27 -64 -90 -106 -114 -116 -123 -129 -143 -161 -173 -183 -178
0 0 -34 -13 -22 0 0 0 0 0 0 0 0 0 0 0 0 -24 0 -67 0 0 -88 -112 -59 -51 -28 -7 -9 -21 -14 -17 -20 -12 -24 -41 -108 -114 -131 -115 -125 -126 -136 -142 -196 -176 -184 -142 -177
0 0 0 0 0 0 0 0 0 0 0 0 0 0 -13 0 0 0 -61 -72 -36 -87 -99 -89 -74 -67 -48 -24 -3 -20 -11 -8 -14 -4 -31 -46 -47 -77 -100 -107 -91 -100 -100 -154 -142 -160 -150 -149 0
0 0 0 -13 -1 -4 -2 -3 0 0 0 0 -2 -10 0 -17 0 -37 -28 -19 -26 -55 -58 -65 -46 -61 -43 -23 -23 -12 -9 -6 -10 -20 -39 -50 -25 -11 -31 -36 -77 -76 -89 -66 -89 -125 -133 -143 -173
-3 0 0 0 0 -31 -3 -31 -77 0 0 -17 0 0 0 0 0 -2 -9 -29 -38 -38 -40 -32 -40 -67 -73 -83 -73 -46 -49 -61 -65 -73 -77 -85 -72 -52 -18 -10 -16 -45 -51 -56 -63 -67 -72 -88 -93
-9 0 0 0 -14 0 0 0 -16 -43 0 0 0 0 0 0 0 0 0 0 -4 -1 0 0 -27 0 0 0 0 0 -33 0 0 -106 -105 -94 -98 -78 -75 -58 -29 -12 -6 -19 -22 -24 -32 -45 -34
-11 -5 0 0 0 0 -82 -19 -97 0 0 -11 0 0 0 0 0 -5 -4 -5 0 0 0 0 0 0 0 0 0 0 0 0 0 0 0 0 -91 -153 -123 -98 -77 -65 -39 -11 -3 -4 -5 -7 -7
Wind_Speed
30 30 29 30 27 30 38 40 36 23 19 19 17 16 13 15 5 14 1 17 17 19 22 21 20 20 22 23 23 22 20 20 20 21 23 23 24 24 24 23 23 22 21 21 20 21 21 21 21
29 30 29 29 34 38 41 39 38 20 13 16 21 14 12 18 4 2 2 14 15 18 22 21 19 19 20 20 20 20 19 19 19 21 22 22 22 22 21 21 21 20 20 19 19 20 20 20 20
29 29 30 31 37 43 41 37 34 16 11 19 21 18 13 20 14 2 11 12 14 14 17 17 17 16 15 17 18 19 19 19 20 20 20 20 20 20 20 19 19 18 18 18 18 18 18 18 18
26 27 31 38 41 38 44 42 40 32 17 18 20 23 11 16 23 3 13 10 11 14 14 15 16 14 15 16 18 18 18 18 18 18 18 18 18 18 17 17 17 17 17 17 16 16 16 16 16
30 29 39 39 43 44 43 41 35 27 24 17 20 13 8 5 9 15 14 14 12 13 13 15 15 15 14 15 15 15 16 16 15 15 16 16 16 16 16 15 15 15 15 15 15 14 14 14 14
34 32 44 45 45 43 45 40 23 31 31 17 19 11 8 9 10 10 9 10 13 11 13 15 14 13 12 12 13 13 12 12 12 13 14 14 15 14 14 14 13 13 13 13 12 12 12 12 12
36 38 47 48 45 45 45 41 23 32 31 26 14 12 10 1 1 6 6 9 10 9 11 12 12 10 10 10 10 10 10 11 12 12 12 13 13 13 12 11 11 11 11 10 10 10 10 10 9
36 40 48 47 48 48 44 41 34 18 32 32 17 23 18 12 10 10 10 9 8 7 10 11 11 10 9 8 9 9 10 10 11 11 11 11 11 10 9 9 8 8 8 8 8 8 8 8 7
35 45 51 49 45 46 44 33 30 32 30 26 19 11 5 12 12 11 12 9 7 6 7 9 10 10 13 8 8 9 9 9 10 10 9 9 8 7 7 6 6 6 6 7 7 7 7 6 7
40 45 49 41 42 38 37 33 33 33 27 27 19 4 3 6 10 8 8 9 7 6 6 7 9 10 11 12 8 8 8 8 9 9 8 7 7 6 5 4 4 4 5 6 6 6 7 8 8
42 51 38 44 37 32 30 34 35 33 29 27 26 16 9 10 9 11 10 8 8 7 5 7 8 10 11 7 9 6 6 6 6 7 6 6 5 4 4 4 3 4 5 6 6 6 7 7 7
44 45 47 41 37 32 31 29 40 29 29 20 22 22 23 21 18 13 12 10 10 9 8 9 10 8 7 6 5 4 4 3 3 3 4 3 2 3 3 3 3 4 5 4 6 5 5 6 7
46 45 39 45 39 35 37 37 38 38 33 29 28 27 27 26 30 21 15 10 11 11 11 11 10 8 6 3 3 4 2 3 2 3 2 2 2 4 3 5 4 2 4 3 3 4 7 5 8
40 44 47 39 40 38 41 45 40 41 32 31 31 34 31 21 24 50 19 15 14 14 13 12 10 8 6 4 1 1 0 1 1 1 1 1 2 5 6 6 8 8 7 4 3 5 6 6 9
38 48 46 42 40 43 43 49 50 42 37 37 37 38 38 35 13 17 30 16 17 15 12 13 9 7 6 5 6 4 5 7 5 6 3 2 4 9 7 8 6 7 8 9 13 15 15 16 15
38 43 44 47 45 42 42 53 45 41 41 44 39 39 41 41 33 28 31 19 24 29 25 9 6 7 5 6 9 10 9 9 11 7 7 4 5 7 11 10 11 9 7 8 4 1 9 10 12
38 43 44 46 45 47 52 59 45 45 47 46 44 43 44 46 40 30 22 17 24 35 42 6 6 7 5 6 8 11 12 12 9 12 10 8 7 8 11 12 11 11 12 14 16 11 15 19 22
38 44 42 46 43 46 47 53 44 42 51 49 47 44 47 46 43 39 21 14 12 19 26 9 7 8 6 7 10 11 13 13 14 14 12 10 10 11 11 11 11 13 12 14 18 18 18 21 25
32 36 46 46 44 50 51 47 42 45 38 45 44 41 43 40 36 40 32 10 8 13 13 13 13 11 8 9 11 14 14 15 15 16 13 11 10 11 10 11 11 12 15 18 21 19 21 21 20
53 30 42 53 44 44 41 50 40 37 40 41 43 39 40 41 33 38 35 29 19 17 16 17 18 17 12 12 13 14 13 14 13 12 11 10 10 9 9 10 10 9 9 13 18 17 20 22 24
56 51 50 48 27 36 36 49 38 34 34 35 40 42 38 39 35 30 26 26 22 15 18 17 18 18 17 16 14 17 17 15 16 14 11 9 9 8 10 9 9 11 12 13 14 14 15 19 21
51 48 52 37 28 40 34 45 38 32 36 32 30 45 36 36 34 38 36 32 28 27 22 22 22 22 18 16 15 15 16 17 17 13 9 9 10 10 11 10 10 12 13 15 14 12 16 18 22
44 45 46 10 34 37 36 37 41 28 32 33 27 23 35 22 17 34 32 23 26 26 26 19 18 16 16 14 16 14 15 16 15 12 13 10 11 11 9 7 10 11 12 13 13 16 17 19 22
43 43 42 35 19 41 38 34 32 29 25 25 22 16 14 19 21 14 15 18 19 18 20 16 16 13 11 12 13 18 15 15 19 15 12 11 10 9 8 7 8 8 9 13 14 16 18 20 23
47 41 31 34 37 39 33 36 32 10 20 16 17 15 18 10 8 13 16 19 17 19 19 20 14 12 12 15 14 17 22 22 20 18 11 10 11 11 10 10 9 11 13 16 17 19 20 21 22
44 32 24 33 39 37 20 37 34 13 10 13 10 10 5 1 7 11 14 17 16 17 20 18 14 16 17 19 20 21 21 21 21 16 13 13 13 13 11 12 13 15 17 19 21 21 22 22 23
43 42 44 16 21 21 13 5 9 10 2 7 13 7 5 1 4 5 7 11 15 16 16 17 16 18 19 20 21 21 19 20 20 18 18 19 17 17 12 13 16 18 20 21 22 24 25 25 26
34 45 45 29 27 24 22 9 8 7 7 7 6 2 1 5 7 7 7 9 12 13 14 13 12 14 15 16 17 17 17 18 19 21 20 22 22 22 18 17 18 20 22 24 26 27 27 28 28
30 44 43 36 35 21 13 17 24 10 8 7 6 2 2 5 6 7 8 10 8 11 13 13 12 13 15 17 18 19 20 20 21 21 22 23 25 26 28 27 27 26 25 26 27 29 29 32 32
39 38 43 37 32 31 10 14 12 5 8 6 4 2 1 4 7 7 8 10 12 13 13 15 16 16 17 18 18 18 20 21 21 23 24 26 27 29 30 31 31 31 31 32 31 32 33 34 35
Wind_Direction
269 266 266 264 263 255 242 236 242 277 284 286 271 292 308 315 25 228 272 91 94 97 101 97 94 92 94 101 101 99 94 88 86 84 89 90 93 91 87 82 78 71 67 65 61 63 64 63 63
274 270 267 263 255 247 241 237 245 279 318 292 277 285 308 283 308 149 182 87 93 100 103 102 97 93 94 98 98 99 96 92 92 92 93 94 93 91 86 79 74 70 69 68 67 65 64 65 65
272 268 263 258 253 245 242 238 239 278 316 285 278 280 315 317 283 350 88 93 96 99 100 101 96 90 86 91 96 100 100 99 98 98 95 94 95 93 90 82 74 70 69 70 67 63 63 62 62
271 268 261 255 249 251 243 241 270 281 285 289 278 284 325 110 210 49 101 102 104 104 99 103 99 91 89 93 99 100 100 99 98 96 93 95 96 95 90 84 79 76 73 71 67 63 58 56 55
263 265 253 255 251 246 240 243 260 264 277 287 273 291 330 40 94 112 106 104 108 107 102 106 101 96 92 95 98 99 98 98 97 94 93 95 97 96 94 88 82 76 73 73 70 63 59 56 61
258 257 250 250 251 248 239 244 271 255 262 282 276 284 317 67 97 113 110 112 110 103 109 109 105 99 92 91 96 97 94 94 92 93 95 98 102 100 97 90 82 74 72 73 69 64 61 60 63
253 252 249 250 251 248 241 246 276 260 254 269 279 275 289 311 66 132 124 116 108 100 111 110 106 98 94 91 93 93 95 97 98 98 98 102 104 104 97 90 79 70 69 69 70 65 58 61 61
254 254 252 250 247 247 243 251 260 266 259 250 292 268 256 248 163 173 146 134 121 107 111 112 108 108 102 92 97 95 96 98 98 99 99 103 104 102 97 91 83 73 63 59 55 49 46 45 46
253 251 248 248 249 250 249 270 261 269 260 275 275 314 298 139 180 176 163 156 144 124 115 115 115 115 117 103 96 94 93 95 99 97 99 101 100 100 99 97 91 71 51 39 33 30 22 25 15
248 248 249 252 252 266 264 258 255 257 264 264 263 323 236 237 240 185 182 178 171 160 146 136 123 122 120 112 104 96 93 93 99 101 100 101 107 97 107 103 79 52 24 12 8 6 2 357 355
247 248 252 251 253 271 262 243 247 277 253 253 258 270 263 223 194 184 184 196 200 189 181 158 145 134 129 112 107 96 85 86 93 102 100 112 104 111 90 41 30 7 356 351 351 350 345 345 347
246 250 250 248 256 269 258 243 256 269 250 285 275 267 270 246 243 227 226 221 212 200 196 171 163 156 152 124 107 112 88 78 61 76 95 70 55 27 39 19 25 19 2 344 341 342 346 347 343
247 247 252 248 259 263 261 250 252 256 259 281 271 270 266 266 262 249 250 229 215 205 198 185 172 173 184 148 120 119 117 93 68 85 88 28 359 350 346 341 337 328 354 359 0 352 345 342 343
249 248 247 259 251 253 261 252 251 249 268 281 270 267 266 270 276 249 251 245 223 217 200 193 188 188 195 250 224 174 248 217 339 355 58 96 343 332 333 330 326 324 329 324 312 337 348 347 348
251 247 246 248 255 246 258 253 247 250 263 268 273 265 267 268 267 249 251 266 280 265 204 197 205 196 200 223 291 283 304 309 305 312 297 267 305 318 323 321 317 313 305 316 324 331 337 337 337
248 246 241 242 249 248 252 250 250 252 257 262 265 268 266 264 272 266 271 273 271 275 244 187 207 211 207 243 274 292 293 295 307 303 309 282 301 295 316 308 314 309 299 295 297 2 341 337 335
245 243 242 248 245 250 247 248 254 255 257 255 261 266 270 260 265 272 277 283 279 283 255 212 203 211 230 265 280 281 290 296 295 305 301 289 295 305 293 307 300 312 319 317 289 343 341 336 333
243 242 242 246 242 245 246 246 252 254 261 247 256 263 264 266 259 268 274 273 297 255 238 274 260 257 244 270 281 285 289 291 296 299 296 291 293 297 302 291 302 319 309 317 324 331 334 332 328
244 247 242 240 244 249 242 245 252 256 253 246 248 250 258 275 261 262 273 254 244 248 269 282 272 271 261 272 278 285 285 289 288 294 292 287 287 293 295 290 295 306 312 314 322 331 332 331 332
228 236 241 227 211 226 242 239 254 257 253 250 241 248 261 267 267 257 261 269 268 265 265 269 276 282 269 275 282 288 289 291 288 294 284 279 282 279 289 280 287 285 307 307 316 325 325 326 327
221 217 230 231 246 251 246 239 253 255 256 250 242 248 261 260 269 276 274 273 283 268 267 272 275 275 275 277 279 288 300 298 299 298 297 279 287 282 293 275 281 295 309 311 313 319 324 324 329
223 219 222 250 252 241 237 244 255 251 249 249 244 244 247 265 270 268 275 274 276 281 282 278 276 274 270 269 278 281 285 295 298 297 303 303 296 290 290 274 276 298 311 307 315 324 322 324 323
200 223 216 215 249 236 241 248 258 240 246 244 243 252 239 243 254 263 277 273 283 281 282 278 279 274 273 271 277 280 287 298 304 296 294 297 300 297 290 274 291 297 304 311 315 319 320 321 322
210 226 234 238 252 237 241 244 255 237 244 239 234 243 237 241 247 271 279 282 281 293 290 284 284 283 275 277 276 288 290 289 302 294 295 288 296 302 293 288 293 297 301 308 313 313 315 318 319
199 223 233 238 239 234 247 248 255 224 232 224 226 233 240 242 254 271 284 284 284 286 293 293 301 295 292 290 291 287 294 298 295 300 285 285 289 290 280 284 283 291 298 303 305 308 311 314 315
189 185 228 232 234 239 260 244 254 283 162 198 199 207 179 162 273 281 292 296 300 299 297 299 302 299 296 295 294 295 293 295 296 298 292 290 293 287 276 273 284 291 297 299 302 304 307 309 309
197 185 194 235 267 246 244 252 20 127 110 136 181 140 135 54 359 322 339 317 315 311 308 307 308 302 301 302 301 301 300 300 299 295 291 301 297 307 279 274 281 288 293 297 297 299 302 303 305
200 209 215 240 247 253 247 221 208 158 164 140 146 172 352 309 299 327 347 325 320 316 322 330 328 322 320 319 315 311 310 309 308 307 300 299 303 299 309 298 292 292 293 294 295 296 299 299 301
225 213 217 222 229 255 236 263 257 154 185 164 152 167 281 305 320 321 331 331 349 344 340 334 336 336 332 328 322 318 316 312 312 307 305 301 301 299 295 298 300 301 297 294 294 294 295 296 298
224 222 220 230 238 244 277 261 275 216 144 152 143 109 348 325 336 341 342 340 341 344 340 332 334 334 334 331 326 324 320 317 314 309 306 304 301 300 299 299 299 299 299 300 298 295 295 295 294